Skip Page Navigation
NASA JPL Caltech
NASA Logo - Jet Propulsion Laboratory + View the NASA Portal
+ Center for Near-Earth Object Studies
JPL Home Earth Solar System Stars & Galaxies Technology
JPL Solar System Dynamics
BODIES ORBITS EPHEMERIDES TOOLS PHYSICAL DATA DISCOVERY FAQ SITE MAP
JPL Small-Body Database Browser
Search: [ help ]  
67985 (2000 XD17)
Classification: Main-belt Asteroid          SPK-ID: 2067985
Ephemeris | Orbit Diagram | Orbital Elements | Mission Design | Physical Parameters | Discovery Circumstances | Close-Approach Data ]

[ show orbit diagram ]
Orbital Elements at Epoch 2459200.5 (2020-Dec-17.0) TDB
Reference: JPL 27 (heliocentric ecliptic J2000)
 Element Value Uncertainty (1-sigma)   Units 
e .166541712273604 2.6892e-08  
a 2.374887858014959 9.7396e-09 au
q 1.979369967683356 6.3567e-08 au
i 7.956662589286806 4.1992e-06 deg
node 297.6372847906762 2.853e-05 deg
peri 121.4102672775036 3.2337e-05 deg
M 184.9166744514986 1.5841e-05 deg
tp 2459850.637734858722
(2022-Sep-28.13773486)
6.0313e-05 TDB
period 1336.789690371192
3.66
8.2234e-06
2.251e-08
d
yr
n .2693018973687905 1.6566e-09 deg/d
Q 2.770405748346562 1.1362e-08 au
  Orbit Determination Parameters
   # obs. used (total)      1193  
   data-arc span      8085 days (22.14 yr)  
   first obs. used      1998-03-31  
   last obs. used      2020-05-19  
   planetary ephem.      DE441  
   SB-pert. ephem.      SB441-N16  
   condition code      0  
   norm. resid. RMS      .48779  
   source      ORB  
   producer      Otto Matic  
   solution date      2021-Apr-13 12:33:44  

Additional Information
 Earth MOID = 1.00505 au 
 Jupiter MOID = 2.56386 au 
 T_jup = 3.510 
[ show covariance matrix ]

Ephemeris | Orbit Diagram | Orbital Elements | Mission Design | Physical Parameters | Discovery Circumstances | Close-Approach Data ]

Physical Parameter Table
Parameter Symbol Value Units Sigma Reference Notes
absolute magnitude H 14.92   n/a E2021B10  

67985 (2000 XD17)          Discovered 2000-Dec-01 by LINEAR at Socorro
Reference: 20030910/Numbers.arcLast Updated: 2004-04-19

[ show close-approach data ]
Alternate Designations
 2000 XD17 = 2002 JD107 
Ephemeris | Orbit Diagram | Orbital Elements | Mission Design | Physical Parameters | Discovery Circumstances | Close-Approach Data ]
ABOUT SSD CREDITS/AWARDS PRIVACY/COPYRIGHT GLOSSARY LINKS
FirstGov 2021-Jun-20 06:40 UT
(server date/time)  
NASA Home Page
Site Manager:   Ryan S. Park
Webmaster  Alan B. Chamberlin